FW7513 Weather Reports


Display with metric or nautical units.
time (UTC)temp
F
wind
direction
speed
MPH
gust
MPH
rain 1hr
in
rain 24hr
in
rain mn
in
humidity
%
barometer
mb
20260902203256 94 172 2.0 3.0 0.00 0.00 0.00 53 1017.9
20260902202751 93 106 0.0 0.0 0.00 0.00 0.00 55 1017.7
20260902202248 93 115 1.0 1.0 0.00 0.00 0.00 54 1017.9
20260902201744 94 117 1.0 1.0 0.00 0.00 0.00 56 1018.0
20260902201243 96 120 1.0 1.0 0.00 0.00 0.00 54 1017.8
20260902200738 95 80 1.0 2.0 0.00 0.00 0.00 54 1017.9
20260902200234 94 57 1.0 2.0 0.00 0.00 0.00 53 1017.9
20260902195729 93 32 2.0 2.0 0.00 0.00 0.00 53 1018.0
20260902195229 94 140 2.0 2.0 0.00 0.00 0.00 57 1017.9
20260902194728 92 53 2.0 2.0 0.00 0.00 0.00 56 1018.0
20260902194224 94 290 5.0 6.0 0.00 0.00 0.00 52 1018.4
20260902193719 94 95 1.0 1.0 0.00 0.00 0.00 57 1018.1
20260902193215 92 21 2.0 2.0 0.00 0.00 0.00 55 1018.5
20260902192713 94 273 3.0 5.0 0.00 0.00 0.00 53 1018.6
20260902192212 94 260 3.0 5.0 0.00 0.00 0.00 52 1018.6
20260902191707 93 68 2.0 2.0 0.00 0.00 0.00 54 1018.7
20260902191201 91 126 2.0 2.0 0.00 0.00 0.00 60 1018.8
20260902190657 91 75 1.0 2.0 0.00 0.00 0.00 58 1018.8
20260902190151 93 161 3.0 3.0 0.00 0.00 0.00 55 1018.7
20260902185647 95 155 2.0 3.0 0.00 0.00 0.00 51 1018.7
20260902185144 94 71 2.0 2.0 0.00 0.00 0.00 54 1018.8
20260902184643 93 94 0.0 1.0 0.00 0.00 0.00 56 1019.0
20260902184139 93 67 1.0 2.0 0.00 0.00 0.00 56 1018.7
20260902183635 94 333 3.0 5.0 0.00 0.00 0.00 52 1018.8
20260902183131 93 294 4.0 5.0 0.00 0.00 0.00 52 1018.7
20260902182627 92 120 2.0 2.0 0.00 0.00 0.00 55 1019.0
20260902182123 93 115 0.0 0.0 0.00 0.00 0.00 53 1018.9
20260902181619 93 140 2.0 2.0 0.00 0.00 0.00 56 1018.9
20260902181119 94 146 1.0 2.0 0.00 0.00 0.00 57 1019.0
20260902180618 93 134 1.0 2.0 0.00 0.00 0.00 54 1019.1
20260902180116 93 86 1.0 2.0 0.00 0.00 0.00 55 1019.2
20260902175614 93 315 3.0 3.0 0.00 0.00 0.00 52 1019.1
20260902175110 93 274 4.0 5.0 0.00 0.00 0.00 53 1018.9
20260902174606 93 134 1.0 2.0 0.00 0.00 0.00 55 1019.2
20260902174056 92 89 1.0 2.0 0.00 0.00 0.00 58 1019.2
20260902173556 91 127 1.0 2.0 0.00 0.00 0.00 62 1019.4
20260902173051 91 134 3.0 3.0 0.00 0.00 0.00 61 1019.3
20260902172551 91 82 2.0 2.0 0.00 0.00 0.00 64 1019.5
20260902172045 92 251 2.0 2.0 0.00 0.00 0.00 59 1019.4
20260902171541 92 182 3.0 3.0 0.00 0.00 0.00 59 1019.5
20260902171038 93 81 3.0 3.0 0.00 0.00 0.00 61 1019.6
20260902170532 92 139 2.0 2.0 0.00 0.00 0.00 61 1019.7
20260902170028 92 115 0.0 0.0 0.00 0.00 0.00 59 1019.6
20260902165528 91 83 1.0 2.0 0.00 0.00 0.00 64 1019.5
20260902165028 91 299 3.0 3.0 0.00 0.00 0.00 59 1019.7
20260902164523 92 352 2.0 2.0 0.00 0.00 0.00 60 1019.7
20260902164022 92 135 1.0 2.0 0.00 0.00 0.00 62 1019.7
20260902163518 91 180 2.0 2.0 0.00 0.00 0.00 61 1019.7
20260902163016 91 110 2.0 3.0 0.00 0.00 0.00 61 1019.8
20260902162516 92 266 3.0 3.0 0.00 0.00 0.00 59 1019.6
20260902162011 91 164 2.0 2.0 0.00 0.00 0.00 59 1019.7
20260902161506 91 222 2.0 2.0 0.00 0.00 0.00 58 1019.7
20260902161001 91 130 2.0 2.0 0.00 0.00 0.00 59 1019.8
20260902160457 91 78 2.0 2.0 0.00 0.00 0.00 61 1019.6
20260902155955 91 64 3.0 3.0 0.00 0.00 0.00 60 1019.6
20260902155450 91 127 1.0 1.0 0.00 0.00 0.00 61 1019.7
20260902154944 92 115 1.0 1.0 0.00 0.00 0.00 61 1019.8
20260902154440 90 292 2.0 2.0 0.00 0.00 0.00 62 1020.1
20260902153939 90 82 2.0 2.0 0.00 0.00 0.00 64 1020.1
20260902153438 90 31 3.0 3.0 0.00 0.00 0.00 63 1020.1
20260902152934 89 131 2.0 2.0 0.00 0.00 0.00 65 1019.9
20260902152430 89 55 2.0 2.0 0.00 0.00 0.00 63 1020.1
20260902151925 89 106 1.0 2.0 0.00 0.00 0.00 67 1020.2
20260902151421 88 108 2.0 3.0 0.00 0.00 0.00 64 1019.9
20260902150914 88 87 1.0 1.0 0.00 0.00 0.00 66 1020.3
20260902150411 87 253 5.0 6.0 0.00 0.00 0.00 64 1020.3
20260902145910 88 148 3.0 3.0 0.00 0.00 0.00 65 1020.1
20260902145406 88 184 4.0 5.0 0.00 0.00 0.00 64 1020.2
20260902144900 88 106 1.0 1.0 0.00 0.00 0.00 69 1020.3
20260902144357 87 159 2.0 2.0 0.00 0.00 0.00 65 1019.8
20260902143857 87 107 1.0 1.0 0.00 0.00 0.00 68 1020.1
20260902143352 86 129 2.0 2.0 0.00 0.00 0.00 68 1019.9
20260902142848 86 169 2.0 3.0 0.00 0.00 0.00 66 1020.1
20260902142343 86 358 3.0 3.0 0.00 0.00 0.00 68 1019.8
20260902141838 85 130 1.0 1.0 0.00 0.00 0.00 68 1020.0
20260902141334 86 144 2.0 2.0 0.00 0.00 0.00 69 1020.0
20260902140833 85 96 0.0 1.0 0.00 0.00 0.00 70 1019.9
20260902140328 84 272 3.0 3.0 0.00 0.00 0.00 69 1020.1
20260902135827 84 134 2.0 2.0 0.00 0.00 0.00 69 1020.1
20260902135324 84 123 1.0 1.0 0.00 0.00 0.00 70 1020.1
20260902134823 84 129 1.0 2.0 0.00 0.00 0.00 71 1020.1
20260902134318 84 105 1.0 1.0 0.00 0.00 0.00 72 1020.0
20260902133814 83 36 3.0 3.0 0.00 0.00 0.00 71 1020.1
20260902133313 83 120 1.0 1.0 0.00 0.00 0.00 72 1020.0
20260902132809 82 225 4.0 5.0 0.00 0.00 0.00 71 1020.0
20260902132306 82 127 2.0 2.0 0.00 0.00 0.00 73 1020.0
20260902131759 82 101 1.0 1.0 0.00 0.00 0.00 71 1020.1
20260902131255 82 290 3.0 3.0 0.00 0.00 0.00 72 1019.9
20260902130755 82 113 1.0 1.0 0.00 0.00 0.00 74 1020.0
20260902130251 82 118 1.0 1.0 0.00 0.00 0.00 73 1019.7
20260902125746 81 121 1.0 1.0 0.00 0.00 0.00 75 1019.8
20260902125242 80 116 0.0 1.0 0.00 0.00 0.00 74 1020.1
20260902124738 80 118 1.0 1.0 0.00 0.00 0.00 75 1019.9
20260902124233 80 117 1.0 1.0 0.00 0.00 0.00 75 1019.7
20260902123729 79 129 1.0 2.0 0.00 0.00 0.00 76 1019.8
20260902123225 78 123 1.0 1.0 0.00 0.00 0.00 77 1019.7
20260902122723 78 115 1.0 1.0 0.00 0.00 0.00 78 1019.7
20260902122219 77 120 1.0 1.0 0.00 0.00 0.00 79 1019.8
20260902121714 77 116 1.0 1.0 0.00 0.00 0.00 79 1019.9
20260902121209 77 112 1.0 1.0 0.00 0.00 0.00 80 1019.8
20260902120704 77 109 0.0 0.0 0.00 0.00 0.00 81 1019.5
20260902120200 76 109 0.0 0.0 0.00 0.00 0.00 81 1019.6
20260902115701 76 113 0.0 0.0 0.00 0.00 0.00 82 1019.6
20260902115157 75 104 0.0 0.0 0.00 0.00 0.00 82 1019.6
20260902114652 75 104 0.0 0.0 0.00 0.00 0.00 82 1019.5
20260902114147 75 103 0.0 0.0 0.00 0.00 0.00 82 1019.3
20260902113642 75 103 0.0 0.0 0.00 0.00 0.00 83 1019.4
20260902113137 75 104 0.0 0.0 0.00 0.00 0.00 83 1019.6
20260902112632 75 103 0.0 0.0 0.00 0.00 0.00 83 1019.3
20260902112130 74 101 0.0 0.0 0.00 0.00 0.00 83 1019.3
20260902111625 74 103 0.0 0.0 0.00 0.00 0.00 83 1019.1
20260902111121 75 103 0.0 0.0 0.00 0.00 0.00 82 1019.1
20260902110616 75 103 0.0 0.0 0.00 0.00 0.00 82 1019.4
20260902110113 75 103 0.0 0.0 0.00 0.00 0.00 82 1019.0
20260902105606 75 103 0.0 0.0 0.00 0.00 0.00 82 1019.3
20260902105102 75 103 0.0 0.0 0.00 0.00 0.00 82 1019.2
20260902104557 75 102 0.0 0.0 0.00 0.00 0.00 82 1019.2
20260902104057 75 102 0.0 0.0 0.00 0.00 0.00 82 1019.3
20260902103552 75 102 0.0 0.0 0.00 0.00 0.00 82 1019.2
20260902103047 75 102 0.0 0.0 0.00 0.00 0.00 82 1019.3
20260902102544 75 102 0.0 0.0 0.00 0.00 0.00 83 1019.2
20260902102040 74 102 0.0 0.0 0.00 0.00 0.00 83 1019.3
20260902101536 74 102 0.0 0.0 0.00 0.00 0.00 83 1019.3
20260902101034 75 102 0.0 0.0 0.00 0.00 0.00 83 1019.1
20260902100529 75 102 0.0 0.0 0.00 0.00 0.00 83 1019.0
20260902100029 75 102 0.0 0.0 0.00 0.00 0.00 82 1019.1
20260902095528 75 102 0.0 0.0 0.00 0.00 0.00 82 1018.8
20260902095027 75 102 0.0 0.0 0.00 0.00 0.00 82 1018.8
20260902094523 75 102 0.0 0.0 0.00 0.00 0.00 82 1019.1
20260902094018 75 102 0.0 0.0 0.00 0.00 0.00 82 1018.9
20260902093514 75 102 0.0 0.0 0.00 0.00 0.00 82 1019.0
20260902093013 75 102 0.0 0.0 0.00 0.00 0.00 82 1018.9
20260902092508 75 102 0.0 0.0 0.00 0.00 0.00 82 1019.0
20260902092003 75 102 0.0 0.0 0.00 0.00 0.00 82 1019.0
20260902091458 75 102 0.0 0.0 0.00 0.00 0.00 82 1019.0
20260902090954 75 102 0.0 0.0 0.00 0.00 0.00 81 1018.8
20260902090449 75 102 0.0 0.0 0.00 0.00 0.00 81 1018.9
20260902085948 75 102 0.0 0.0 0.00 0.00 0.00 81 1018.9
20260902085443 75 102 0.0 0.0 0.00 0.00 0.00 81 1018.7
20260902084939 75 102 0.0 0.0 0.00 0.00 0.00 81 1018.6
20260902084435 76 102 0.0 0.0 0.00 0.00 0.00 80 1018.7
20260902083930 76 102 0.0 0.0 0.00 0.00 0.00 80 1018.7
20260902083424 76 102 0.0 0.0 0.00 0.00 0.00 80 1018.6
20260902082919 76 102 0.0 0.0 0.00 0.00 0.00 80 1018.6
20260902082415 76 102 0.0 0.0 0.00 0.00 0.00 80 1018.4
20260902081911 76 102 0.0 0.0 0.00 0.00 0.00 80 1018.1
20260902081408 76 102 0.0 0.0 0.00 0.00 0.00 80 1018.3
20260902080902 76 102 0.0 0.0 0.00 0.00 0.00 80 1018.4
20260902080358 75 102 0.0 0.0 0.00 0.00 0.00 80 1018.1
20260902075857 75 102 0.0 0.0 0.00 0.00 0.00 80 1018.5
20260902075354 76 102 0.0 0.0 0.00 0.00 0.00 80 1018.3
20260902074849 76 102 0.0 0.0 0.00 0.00 0.00 81 1018.4
20260902074345 75 102 0.0 0.0 0.00 0.00 0.00 81 1018.4
20260902073840 75 102 0.0 0.0 0.00 0.00 0.00 81 1018.4
20260902073336 75 102 0.0 0.0 0.00 0.00 0.00 80 1018.3
20260902072832 76 102 0.0 0.0 0.00 0.00 0.00 80 1018.4
20260902072327 76 102 0.0 0.0 0.00 0.00 0.00 80 1018.0
20260902071823 76 102 0.0 0.0 0.00 0.00 0.00 80 1018.4
20260902071318 76 102 0.0 0.0 0.00 0.00 0.00 80 1018.3
20260902070815 76 102 0.0 0.0 0.00 0.00 0.00 80 1018.5
20260902070314 76 102 0.0 0.0 0.00 0.00 0.00 80 1018.3
20260902065813 76 102 0.0 0.0 0.00 0.00 0.00 80 1018.3
20260902065308 76 102 0.0 0.0 0.00 0.00 0.00 80 1018.3
20260902064804 76 101 0.0 0.0 0.00 0.00 0.00 79 1018.5
20260902064300 77 101 0.0 0.0 0.00 0.00 0.00 79 1018.1
20260902063755 77 102 0.0 0.0 0.00 0.00 0.00 79 1018.3
20260902063249 77 102 0.0 0.0 0.00 0.00 0.00 78 1018.3
20260902062749 77 102 0.0 0.0 0.00 0.00 0.00 78 1018.4
20260902062244 77 102 0.0 0.0 0.00 0.00 0.00 78 1018.1
20260902061743 77 102 0.0 0.0 0.00 0.00 0.00 77 1018.5
20260902061238 77 102 0.0 0.0 0.00 0.00 0.00 77 1018.3
20260902060736 77 102 0.0 0.0 0.00 0.00 0.00 77 1018.4
20260902060231 78 102 0.0 0.0 0.00 0.00 0.00 77 1018.5
20260902055726 78 102 0.0 0.0 0.00 0.00 0.00 77 1018.5
20260902055222 78 102 0.0 0.0 0.00 0.00 0.00 77 1018.7
20260902054717 78 102 0.0 0.0 0.00 0.00 0.00 76 1018.4
20260902054213 78 102 0.0 0.0 0.00 0.00 0.00 76 1018.3
20260902053708 78 102 0.0 0.0 0.00 0.00 0.00 76 1018.3
20260902053208 78 102 0.0 0.0 0.00 0.00 0.00 76 1018.4
20260902052707 78 102 0.0 0.0 0.00 0.00 0.00 76 1018.4
20260902052203 78 102 0.0 0.0 0.00 0.00 0.00 76 1018.4
20260902051702 78 102 0.0 0.0 0.00 0.00 0.00 76 1018.4
20260902051156 78 102 0.0 0.0 0.00 0.00 0.00 76 1018.4
20260902050651 78 102 0.0 0.0 0.00 0.00 0.00 76 1018.4
20260902050147 78 102 0.0 0.0 0.00 0.00 0.00 75 1018.5
20260902045641 78 102 0.0 0.0 0.00 0.00 0.00 75 1018.4
20260902045137 78 102 0.0 0.0 0.00 0.00 0.00 75 1018.5
20260902044632 79 102 0.0 0.0 0.00 0.00 0.00 75 1018.5
20260902044128 79 102 0.0 0.0 0.00 0.00 0.00 74 1018.6
20260902043623 79 102 0.0 0.0 0.00 0.00 0.00 75 1018.4
20260902043118 79 102 0.0 0.0 0.00 0.00 0.00 74 1018.1
20260902042617 79 102 0.0 0.0 0.00 0.00 0.00 73 1018.6
20260902042113 79 102 0.0 0.0 0.00 0.00 0.00 73 1018.7
20260902041613 80 102 0.0 0.0 0.00 0.00 0.00 73 1018.6
20260902041107 80 102 0.0 0.0 0.00 0.00 0.00 73 1018.5
20260902040601 80 102 0.0 0.0 0.00 0.00 0.00 73 1018.6
20260902040056 80 102 0.0 0.0 0.00 0.00 0.00 73 1018.6
20260902035555 80 102 0.0 0.0 0.00 0.00 0.00 72 1018.6
20260902035050 80 102 0.0 0.0 0.00 0.00 0.00 72 1018.5
20260902034550 80 102 0.0 0.0 0.00 0.00 0.00 72 1018.6
20260902034049 80 102 0.0 0.0 0.00 0.00 0.00 72 1018.5
20260902033548 81 102 0.0 0.0 0.00 0.00 0.00 71 1018.6
20260902033043 81 102 0.0 0.0 0.00 0.00 0.00 71 1018.6
20260902032542 81 102 0.0 0.0 0.00 0.00 0.00 71 1018.7
20260902032037 81 102 0.0 0.0 0.00 0.00 0.00 71 1018.5
20260902031532 81 101 0.0 0.0 0.00 0.00 0.00 71 1018.4
20260902031028 81 102 0.0 0.0 0.00 0.00 0.00 71 1018.4
20260902030522 81 102 0.0 0.0 0.00 0.00 0.00 70 1018.5
20260902030017 81 101 0.0 0.0 0.00 0.00 0.00 70 1018.5
20260902025511 81 101 0.0 0.0 0.00 0.00 0.00 70 1018.5
20260902025006 81 102 0.0 0.0 0.00 0.00 0.00 70 1018.4
20260902024502 81 101 0.0 0.0 0.00 0.00 0.00 70 1018.6
20260902023956 81 101 0.0 0.0 0.00 0.00 0.00 71 1018.5
20260902023452 81 101 0.0 0.0 0.00 0.00 0.00 71 1018.6
20260902022951 81 101 0.0 0.0 0.00 0.00 0.00 71 1018.5
20260902022447 81 101 0.0 0.0 0.00 0.00 0.00 71 1018.3
20260902021942 81 101 0.0 0.0 0.00 0.00 0.00 71 1018.6
20260902021437 81 101 0.0 0.0 0.00 0.00 0.00 71 1018.5
20260902020932 81 101 0.0 0.0 0.00 0.00 0.00 71 1018.5
20260902020428 81 101 0.0 0.0 0.00 0.00 0.00 71 1018.4
20260902015923 81 101 0.0 0.0 0.00 0.00 0.00 71 1018.4
20260902015419 81 101 0.0 0.0 0.00 0.00 0.00 71 1018.7
20260902014914 81 101 0.0 0.0 0.00 0.00 0.00 71 1018.5
20260902014411 82 101 0.0 0.0 0.00 0.00 0.00 71 1018.5
20260902013909 82 101 0.0 0.0 0.00 0.00 0.00 70 1018.4
20260902013405 82 101 0.0 0.0 0.00 0.00 0.00 70 1018.5
20260902012901 82 101 0.0 0.0 0.00 0.00 0.00 70 1018.4
20260902012357 82 101 0.0 0.0 0.00 0.00 0.00 69 1018.4
20260902011852 82 101 0.0 0.0 0.00 0.00 0.00 69 1018.1
20260902011347 83 101 0.0 0.0 0.00 0.00 0.00 68 1018.3
20260902010847 83 101 0.0 0.0 0.00 0.00 0.00 68 1018.4
20260902010341 83 101 0.0 0.0 0.00 0.00 0.00 68 1017.9
20260902005841 83 102 0.0 0.0 0.00 0.00 0.00 68 1018.0
20260902005335 83 102 0.0 0.0 0.00 0.00 0.00 67 1017.8
20260902004831 83 102 0.0 0.0 0.00 0.00 0.00 67 1017.9
20260902004325 84 102 0.0 0.0 0.00 0.00 0.00 67 1017.9
20260902003820 84 102 0.0 0.0 0.00 0.00 0.00 67 1017.8
20260902003315 84 102 0.0 0.0 0.00 0.00 0.00 66 1017.9
20260902002811 84 102 0.0 0.0 0.00 0.00 0.00 66 1018.0
20260902002310 84 102 0.0 0.0 0.00 0.00 0.00 66 1018.0
20260902001806 85 102 0.0 0.0 0.00 0.00 0.00 65 1017.9
20260902001301 85 102 0.0 0.0 0.00 0.00 0.00 65 1018.3
20260902000800 85 101 0.0 0.0 0.00 0.00 0.00 64 1018.3
20260902000257 86 102 0.0 0.0 0.00 0.00 0.00 64 1018.1
20260901235750 86 101 0.0 0.0 0.00 0.00 0.00 63 1018.3
20260901235245 87 101 0.0 0.0 0.00 0.00 0.00 63 1018.4
20260901234744 87 102 0.0 0.0 0.00 0.00 0.00 62 1018.1
20260901234239 88 102 0.0 0.0 0.00 0.00 0.00 62 1017.9
20260901233734 88 102 0.0 0.0 0.00 0.00 0.00 62 1018.3
20260901233231 89 102 0.0 0.0 0.00 0.00 0.00 61 1018.5
20260901232731 89 102 0.0 0.0 0.00 0.00 0.00 59 1018.4
20260901232226 90 105 0.0 0.0 0.00 0.00 0.00 59 1018.4
20260901231722 91 105 0.0 0.0 0.00 0.00 0.00 57 1018.5
20260901231218 90 105 0.0 0.0 0.00 0.00 0.00 55 1018.4
20260901230714 91 105 0.0 0.0 0.00 0.00 0.00 57 1018.1
20260901230213 92 98 1.0 2.0 0.00 0.00 0.00 53 1018.5
20260901225709 92 104 0.0 0.0 0.00 0.00 0.00 55 1018.1
20260901225203 93 88 1.0 1.0 0.00 0.00 0.00 53 1018.5
20260901224659 92 110 0.0 0.0 0.00 0.00 0.00 56 1018.1
20260901224155 93 42 2.0 2.0 0.00 0.00 0.00 51 1018.4
20260901223650 92 118 0.0 0.0 0.00 0.00 0.00 54 1018.1
20260901223145 92 287 2.0 2.0 0.00 0.00 0.00 52 1018.4
20260901222642 91 33 2.0 2.0 0.00 0.00 0.00 51 1018.4
20260901222137 91 103 0.0 0.0 0.00 0.00 0.00 57 1017.8
20260901221633 91 127 2.0 3.0 0.00 0.00 0.00 53 1018.3
20260901221129 91 97 0.0 0.0 0.00 0.00 0.00 57 1018.4
20260901220628 91 85 1.0 1.0 0.00 0.00 0.00 53 1018.3
20260901220127 92 273 3.0 3.0 0.00 0.00 0.00 53 1018.1
20260901215625 92 107 2.0 2.0 0.00 0.00 0.00 56 1018.4
20260901215120 92 70 2.0 2.0 0.00 0.00 0.00 56 1018.3
20260901214618 92 149 2.0 2.0 0.00 0.00 0.00 53 1018.3
20260901214113 92 280 2.0 2.0 0.00 0.00 0.00 54 1018.1
20260901213613 92 118 1.0 1.0 0.00 0.00 0.00 54 1018.3
20260901213107 92 209 3.0 3.0 0.00 0.00 0.00 53 1018.1
20260901212601 93 58 2.0 2.0 0.00 0.00 0.00 53 1018.5
20260901212058 93 11 3.0 3.0 0.00 0.00 0.00 52 1018.1
20260901211553 92 225 2.0 2.0 0.00 0.00 0.00 54 1018.0
20260901211049 93 121 1.0 2.0 0.00 0.00 0.00 52 1017.9
20260901210544 93 207 2.0 2.0 0.00 0.00 0.00 51 1018.3
20260901210041 93 110 1.0 1.0 0.00 0.00 0.00 52 1018.3
20260901205536 93 34 2.0 3.0 0.00 0.00 0.00 54 1018.5
20260901205036 93 205 1.0 2.0 0.00 0.00 0.00 51 1018.1
20260901204532 93 134 1.0 1.0 0.00 0.00 0.00 54 1018.5
20260901204026 94 310 4.0 5.0 0.00 0.00 0.00 51 1018.5